Flag for Brazil Weather past 2 weeks in Brasilia, Distrito Federal, Brazil

Now
50 °F

Clear.


Feels Like: 50 °F
Forecast: 53 / 80 °F
Wind: No wind

Location: Brasilia Aeroporto

Current Time: Aug 4, 2015 at 4:30:25 AM

Latest Report: Aug 4, 2015 at 4:00 AM


Visibility: 10 mi

Pressure: 30.18 "Hg (26.46 "Hg at 1091m altitude)

Humidity: 82%

Dew point: 45 °F

Location of BrasiliaLocation

Historic Weather in Brasilia — Graph

°F

Brasilia temperature yesterday

Maximum temperature yesterday: 81 °F (at 2:00 PM)
Minimum temperature yesterday: 55 °F (at 4:00 AM)
Average temperature yesterday: 67 °F

Past Weeks' High & Low Weather Summary

 TemperatureHumidityPressure
High82 °F (Jul 21, 2:00 PM)94% (Jul 26, 6:00 AM)30.30 "Hg (Jul 26, 6:00 AM)
Low50 °F (Aug 2, 7:00 AM)26% (Aug 2, 5:00 PM)30.07 "Hg (Jul 27, 3:00 PM)
Average68 °F54%30.18 "Hg
* Reported Jul 20 3:00 AM — Aug 4 3:00 AM, Brasilia, Weather by CustomWeather, © 2015

Note: Actual official high and low records may vary slightly from our data, if they occured in-between our weather recording intervals... More about our weather records

Advertising

Brasilia weather history for previous 24 hours

 ConditionsComfort  
Time TempWeatherWind HumidityBarometerVisibility
3:00 AM
Tue, Aug 4
50 °FClear.5 mph82%30.18 "Hg10 mi
2:00 AM52 °FClear.No wind77%30.18 "Hg10 mi
1:00 AM55 °FClear.3 mph67%30.21 "Hg10 mi
12:00 AM57 °FClear.5 mph63%30.21 "Hg10 mi
11:00 PM
Mon, Aug 3
63 °FClear.No wind52%30.21 "Hg10 mi
10:00 PM61 °FClear.2 mph59%30.21 "Hg10 mi
9:00 PM59 °FClear.2 mph68%30.21 "Hg10 mi
8:00 PM63 °FClear.No wind56%30.18 "Hg10 mi
7:00 PM68 °FClear.3 mph43%30.18 "Hg10 mi
6:00 PM73 °FClear.6 mph36%30.15 "Hg10 mi
5:00 PM79 °FSunny.9 mph28%30.15 "Hg10 mi
4:00 PM81 °FSunny.5 mph26%30.15 "Hg10 mi
3:00 PM81 °FSunny.7 mph26%30.15 "Hg10 mi
2:00 PM81 °FSunny.8 mph26%30.18 "Hg10 mi
1:00 PM79 °FSunny.7 mph28%30.18 "Hg10 mi
12:00 PM79 °FSunny.6 mph30%30.21 "Hg10 mi
11:00 AM75 °FSunny.13 mph31%30.24 "Hg10 mi
10:00 AM73 °FSunny.12 mph36%30.24 "Hg10 mi
9:00 AM68 °FSunny.3 mph49%30.21 "Hg10 mi
8:00 AM61 °FSunny.3 mph68%30.21 "Hg10 mi
7:00 AM57 °FSunny.No wind67%30.18 "Hg10 mi
6:00 AM55 °FClear.5 mph72%30.15 "Hg10 mi
5:00 AM55 °FClear.5 mph72%30.15 "Hg10 mi
4:00 AM55 °FClear.3 mph72%30.15 "Hg10 mi
Weather by CustomWeather, © 2015

See weather overviewHow to use our weather pages